Starlink 32849

operational
NORAD ID: 62872 Int'l Des: 2025-022 Owner: SPXS Country: US Constellation: starlink
LEOCIRCULAR

Starlink 32849について

説明を読み込み中...

リアルタイム位置

3D地球を読み込み中...

次回通過

高度履歴

Altitude vs Time

uPlot chart will show altitude changes over time

軌道要素

1 62872U 25022U 25259.61182990 .00040391 00000-0 13679-2 0 9990
2 62872 53.1583 218.5020 0000469 76.0354 284.0699 15.30214075 35244
Epoch: Sep 16, 2025 • Age: 13 hours

現在のステータス

高度 476.0 km
速度 7.63 km/s
衛星直下点 26.28°N, 169.23°W
打ち上げ日 Feb 2, 2025
運用期間 0.6 years
タイプ internet

技術仕様

分類 Payload
質量 730.00 kg
乾燥質量 700.00 kg
総質量 730.00 kg
長さ 0.30 m
直径 4.10 m
スパン 29.00 m
形状 Box + pan
製造者 SPXS
バスタイプ Starlink V2M
フェーズステータス In Orbit
所有者/国 SPXS/US

大規模コンステレーション

Loading constellations...